ORBCOMM FM105 [+]

Last updated on Sept. 7, 2017, 12:18 a.m. UTC

1 41181U 15081C   17249.51584636 -.00000049  00000-0  31747-4 0  9991
2 41181  47.0032 349.2799 0002558 219.8029 140.2663 14.43249739 90284
UTC
Height (km)
Latitude
Longitude
Inclination
Orbital Period
UTC large
Height (km)
Speed (km/s)
/
Latitude / Longitude
Inclination (degrees)
Orbital Period (minutes)
Azimuth
Elevation
Range (km)
Doppler Factor
iOS Compass Heading
iOS Angle